Voltar ao catálogo

STARLINK-4496

AtivoComunicaçõesVLEO
NORAD 53412·PAYLOAD·🇺🇸 United States

Lançado Aug 10, 2022 de Cape Canaveral Space Force Station

Loading…

Próximas Passagens (próximas 24 horas)

TLE

AtualizadoSource: CelesTrak SupGP

Época: Sep 14, 2026, 21:27 UTC

1 53412C 22097AA  26257.89423611  .00378450  00000+0  15190-1 0  2571
2 53412  53.1606 343.2085 0001189  87.5131  99.6765 15.24256491    19

Acompanhe STARLINK-4496 em tempo real com AllMySat

Download on the App Store